星链-5987 (STARLINK-5987 )

导读 | 豆包AI

STARLINK-5987是美国太空探索技术公司(SpaceX)星链互联网项目的卫星,于2023年5月10日发射入轨。星链计划旨在构建全球卫星互联网星座,为全球各地提供高速互联网接入服务,该卫星的入轨进一步扩充了星链星座的规模,提升了星座的覆盖能力与服务性能。

基本信息
目录编号:
56455
目录名称:
STARLINK-5987
国际标识:
2023-064H
轨道中心:
EARTH
卫星名称:
星链-5987
卫星全名:
星链-5987 (STARLINK-5987 )
卫星状态:
在轨 (已飞行1040 天)
发射日期:
2023-05-10 UTC
国别 :
美国 (US)
星等 :
--
轨道信息
数据来源 国际轨道数据
星历时间: 2026-03-15T21:02:21+0800
7小时前
查看轨道信息
半长轴: 6950.175km
偏心率: 0.0003362
轨道倾角: 69.999°
近地点辐角 271.796°
升交点赤经 129.669°
平近点角 88.281°
近地点: 569.701km
远地点: 574.375km
周期: 96.107分钟
每日圈数: 14.98336
详细信息
固有亮度:
5
最大亮度:
2.5
卫星平台:
Starlink v1.5
覆盖范围:
全球
运营商:
太空探索技术公司
运营商所在国:
美国
制造商(研发单位):
太空探索技术公司
制造商所在国:
美国
使用方式:
暂无
卫星简介
星链(Starlink)计划是由太空探索技术公司(SpaceX)提出的一个巨型低轨卫星互联网星座项目,计划在2019年至2024年间在太空搭建由约1.2万颗卫星组成的“星链”网络,其中1584颗将部署在地球上空550千米处的近地轨道,并从2020年开始工作。该卫星仍在工作。
2D轨道图
3D轨道图
轨道高度分析图
轨道倾角分析图
轨道综合分析图
查看轨道综合分析图